UAE566 OMDB-VOBL

Flight info

Callsign UAE566
Flight time N/A
Altitude 39000
Route ANVIX L223 TARDI N629 TOTOX P574 ADPOP/N0487F410 P574 BBM W78 SUSIK SUSIK7E
Aircraft A359/H-SDE2E3GHIJ3J4J5LM1ORWXY/LB1D1

Departure

Time 2026-04-24 11:16
Airport Dubai International Airport (OMDB)

Arrival

Time N/A
Airport Kempegowda International Airport Bengaluru (VOBL)
Time Latitude Longitude Altitude Speed Heading
2026-04-24 11:16 25.07652 55.58349 10754 ft 330 kts 133°
2026-04-24 11:16 25.06105 55.60262 11021 ft 346 kts 133°
2026-04-24 11:17 25.04462 55.62291 11511 ft 353 kts 133°
2026-04-24 11:17 25.02816 55.64313 12091 ft 357 kts 133°
2026-04-24 11:17 25.01146 55.66357 12713 ft 360 kts 133°
2026-04-24 11:17 24.99484 55.68385 13380 ft 362 kts 134°
2026-04-24 11:18 24.98759 55.69268 13642 ft 363 kts 134°
2026-04-24 11:18 24.96962 55.71239 14149 ft 365 kts 144°
2026-04-24 11:18 24.95048 55.73098 14581 ft 369 kts 145°
2026-04-24 11:18 24.93125 55.74991 15049 ft 373 kts 143°
2026-04-24 11:19 24.91233 55.76978 15526 ft 377 kts 141°
2026-04-24 11:19 24.89388 55.79047 16027 ft 381 kts 140°
2026-04-24 11:19 24.87569 55.81187 16492 ft 385 kts 139°
2026-04-24 11:19 24.85757 55.83375 16991 ft 388 kts 138°
2026-04-24 11:20 24.83940 55.85596 17495 ft 392 kts 138°
2026-04-24 11:20 24.82111 55.87836 17964 ft 396 kts 138°
2026-04-24 11:20 24.80259 55.90099 18403 ft 400 kts 138°
2026-04-24 11:20 24.78388 55.92381 18824 ft 403 kts 139°
2026-04-24 11:21 24.76490 55.94665 19267 ft 405 kts 140°
2026-04-24 11:21 24.74486 55.96849 19690 ft 408 kts 143°
2026-04-24 11:21 24.72387 55.98969 20107 ft 411 kts 144°
2026-04-24 11:21 24.70250 56.01075 20536 ft 414 kts 145°
2026-04-24 11:22 24.68103 56.03193 20955 ft 417 kts 144°
2026-04-24 11:22 24.65950 56.05351 21383 ft 420 kts 144°
2026-04-24 11:22 24.63797 56.07531 21794 ft 423 kts 144°
2026-04-24 11:22 24.61631 56.09743 22190 ft 426 kts 143°
2026-04-24 11:23 24.59453 56.11977 22605 ft 430 kts 143°
2026-04-24 11:23 24.57283 56.14249 22958 ft 435 kts 141°
2026-04-24 11:23 24.55236 56.16713 23415 ft 438 kts 138°
2026-04-24 11:23 24.53217 56.19229 23789 ft 441 kts 137°
2026-04-24 11:24 24.51194 56.21783 24136 ft 445 kts 137°
2026-04-24 11:24 24.49168 56.24363 24510 ft 447 kts 137°
2026-04-24 11:24 24.47136 56.26958 24880 ft 451 kts 137°
2026-04-24 11:24 24.45082 56.29577 25256 ft 454 kts 137°
2026-04-24 11:25 24.43039 56.32180 25619 ft 457 kts 137°
2026-04-24 11:25 24.40960 56.34825 25968 ft 460 kts 137°
2026-04-24 11:25 24.38834 56.37527 26331 ft 463 kts 137°
2026-04-24 11:25 24.36750 56.40172 26666 ft 466 kts 137°
2026-04-24 11:26 24.34622 56.42871 27014 ft 469 kts 137°
2026-04-24 11:26 24.32485 56.45580 27362 ft 471 kts 137°
2026-04-24 11:26 24.30332 56.48307 27697 ft 474 kts 137°
2026-04-24 11:26 24.28177 56.51059 28002 ft 478 kts 135°
2026-04-24 11:27 24.26134 56.53949 28325 ft 482 kts 131°
2026-04-24 11:27 24.24177 56.56948 28702 ft 484 kts 130°
2026-04-24 11:27 24.22249 56.59975 29033 ft 487 kts 130°
2026-04-24 11:27 24.20300 56.63029 29336 ft 490 kts 130°
2026-04-24 11:28 24.18327 56.66083 29644 ft 493 kts 130°
2026-04-24 11:28 24.16324 56.69143 29965 ft 495 kts 131°
2026-04-24 11:28 24.14302 56.72201 30212 ft 497 kts 131°
2026-04-24 11:28 24.12398 56.75063 30433 ft 500 kts 131°
2026-04-24 11:29 24.11286 56.76729 30568 ft 501 kts 131°
2026-04-24 11:29 24.09225 56.79815 30813 ft 503 kts 131°
2026-04-24 11:29 24.07155 56.82912 31068 ft 506 kts 131°
2026-04-24 11:29 24.05073 56.86026 31304 ft 508 kts 131°
2026-04-24 11:30 24.03010 56.89112 31521 ft 510 kts 131°
2026-04-24 11:30 24.00916 56.92248 31765 ft 512 kts 131°
2026-04-24 11:30 23.98806 56.95398 32011 ft 514 kts 131°
2026-04-24 11:30 23.96694 56.98549 32240 ft 515 kts 131°
2026-04-24 11:31 23.94572 57.01712 32449 ft 517 kts 131°
2026-04-24 11:31 23.92441 57.04886 32667 ft 518 kts 131°
2026-04-24 11:31 23.90301 57.08072 32871 ft 520 kts 131°
2026-04-24 11:31 23.88160 57.11259 33069 ft 521 kts 131°
2026-04-24 11:32 23.86017 57.14453 33266 ft 523 kts 131°
2026-04-24 11:32 23.83865 57.17655 33459 ft 524 kts 131°
2026-04-24 11:32 23.81696 57.20875 33620 ft 525 kts 131°
2026-04-24 11:32 23.79532 57.24089 33801 ft 527 kts 131°
2026-04-24 11:33 23.77355 57.27320 33940 ft 528 kts 131°
2026-04-24 11:33 23.75176 57.30552 34077 ft 530 kts 131°
2026-04-24 11:33 23.70787 57.37058 34267 ft 534 kts 131°
2026-04-24 11:34 23.68534 57.40279 34418 ft 535 kts 133°
2026-04-24 11:34 23.66218 57.43458 34531 ft 536 kts 134°
2026-04-24 11:34 23.63876 57.46621 34669 ft 536 kts 134°
2026-04-24 11:34 23.61528 57.49788 34809 ft 537 kts 134°
2026-04-24 11:35 23.57630 57.55073 35019 ft 539 kts 134°
2026-04-24 11:35 23.54503 57.59343 35208 ft 539 kts 134°
2026-04-24 11:35 23.52951 57.61466 35277 ft 540 kts 134°
2026-04-24 11:36 23.49822 57.65752 35452 ft 541 kts 134°
2026-04-24 11:36 23.48270 57.67878 35529 ft 541 kts 134°
2026-04-24 11:36 23.45925 57.71094 35662 ft 542 kts 134°
2026-04-24 11:36 23.43575 57.74309 35796 ft 543 kts 134°
2026-04-24 11:37 23.41222 57.77523 35899 ft 544 kts 134°
2026-04-24 11:37 23.38863 57.80742 36011 ft 545 kts 134°
2026-04-24 11:37 23.36501 57.83963 36145 ft 545 kts 134°
2026-04-24 11:37 23.34135 57.87189 36285 ft 545 kts 134°
2026-04-24 11:38 23.31770 57.90413 36451 ft 546 kts 134°
2026-04-24 11:38 23.29402 57.93642 36604 ft 546 kts 134°
2026-04-24 11:38 23.24660 58.00105 36782 ft 547 kts 134°
2026-04-24 11:39 23.20093 58.06748 36935 ft 549 kts 129°
2026-04-24 11:39 23.17974 58.10189 37111 ft 548 kts 128°
2026-04-24 11:39 23.15878 58.13647 37226 ft 548 kts 128°
2026-04-24 11:40 23.11639 58.20560 37410 ft 550 kts 128°
2026-04-24 11:40 23.07334 58.27427 37590 ft 551 kts 129°
2026-04-24 11:41 23.03013 58.34284 37714 ft 552 kts 127°
2026-04-24 11:41 23.01208 58.37910 37643 ft 553 kts 116°
2026-04-24 11:41 22.99867 58.41874 37963 ft 547 kts 111°
2026-04-24 11:42 22.98712 58.45737 38131 ft 546 kts 110°
2026-04-24 11:42 22.97574 58.49733 38173 ft 547 kts 109°
2026-04-24 11:42 22.96493 58.53631 38315 ft 546 kts 109°
2026-04-24 11:42 22.95407 58.57566 38469 ft 545 kts 109°
2026-04-24 11:43 22.94303 58.61560 38619 ft 544 kts 109°
2026-04-24 11:43 22.93227 58.65430 38699 ft 543 kts 109°
2026-04-24 11:43 22.91021 58.73311 38879 ft 542 kts 109°
2026-04-24 11:44 22.88816 58.81125 38897 ft 542 kts 109°
2026-04-24 11:44 22.86623 58.88876 38893 ft 541 kts 109°
2026-04-24 11:45 22.84411 58.96674 38892 ft 541 kts 110°
2026-04-24 11:45 22.82198 59.04453 38860 ft 539 kts 110°
2026-04-24 11:46 22.79995 59.12174 38885 ft 534 kts 110°
2026-04-24 11:46 22.77804 59.19862 38880 ft 534 kts 110°
2026-04-24 11:47 22.75608 59.27549 38873 ft 535 kts 110°
2026-04-24 11:47 22.73395 59.35282 38862 ft 538 kts 110°
2026-04-24 11:48 22.71169 59.43038 38850 ft 540 kts 109°
2026-04-24 11:48 22.68935 59.50802 38840 ft 540 kts 109°
2026-04-24 11:49 22.66697 59.58572 38830 ft 541 kts 109°
2026-04-24 11:49 22.64452 59.66352 38826 ft 541 kts 109°
2026-04-24 11:50 22.62203 59.74129 38825 ft 542 kts 109°
2026-04-24 11:50 22.59947 59.81912 38824 ft 543 kts 109°
2026-04-24 11:51 22.57680 59.89715 38823 ft 543 kts 109°
2026-04-24 11:51 22.55411 59.97523 38822 ft 544 kts 109°
2026-04-24 11:52 22.53139 60.05327 38822 ft 544 kts 109°
2026-04-24 11:52 22.50861 60.13130 38823 ft 544 kts 109°
2026-04-24 11:53 22.48581 60.20921 38824 ft 543 kts 109°
2026-04-24 11:53 22.46315 60.28650 38824 ft 543 kts 109°
2026-04-24 11:54 22.44032 60.36430 38823 ft 542 kts 109°
2026-04-24 11:54 22.41749 60.44194 38821 ft 542 kts 109°
2026-04-24 11:55 22.39463 60.51951 38826 ft 542 kts 109°
2026-04-24 11:55 22.37171 60.59709 38826 ft 541 kts 109°
2026-04-24 11:56 22.34883 60.67440 38828 ft 541 kts 109°
2026-04-24 11:56 22.32586 60.75186 38825 ft 540 kts 109°
2026-04-24 11:57 22.30294 60.82902 38828 ft 540 kts 109°
2026-04-24 11:57 22.27999 60.90613 38826 ft 539 kts 109°
2026-04-24 11:58 22.25707 60.98299 38831 ft 538 kts 109°
2026-04-24 11:58 22.23413 61.05982 38832 ft 537 kts 109°
2026-04-24 11:59 22.21118 61.13647 38829 ft 536 kts 109°
2026-04-24 11:59 22.18839 61.21242 38827 ft 535 kts 109°
2026-04-24 12:00 22.16548 61.28866 38831 ft 534 kts 109°
2026-04-24 12:00 22.14259 61.36477 38828 ft 533 kts 109°
2026-04-24 12:01 22.11971 61.44070 38833 ft 532 kts 109°
2026-04-24 12:01 22.09680 61.51648 38832 ft 532 kts 109°
2026-04-24 12:02 22.07388 61.59222 38838 ft 531 kts 109°
2026-04-24 12:02 22.05094 61.66788 38834 ft 530 kts 109°
2026-04-24 12:03 22.02801 61.74341 38841 ft 530 kts 109°
2026-04-24 12:03 22.00502 61.81900 38835 ft 530 kts 109°
2026-04-24 12:04 21.98199 61.89447 38836 ft 530 kts 110°
2026-04-24 12:04 21.95896 61.96983 38833 ft 530 kts 110°
2026-04-24 12:05 21.93591 62.04519 38837 ft 529 kts 110°
2026-04-24 12:05 21.91285 62.12044 38837 ft 529 kts 110°
2026-04-24 12:06 21.88975 62.19560 38838 ft 529 kts 110°
2026-04-24 12:06 21.86664 62.27074 38841 ft 529 kts 110°
2026-04-24 12:07 21.84350 62.34581 38843 ft 529 kts 109°
2026-04-24 12:07 21.81391 62.41798 38838 ft 527 kts 118°
2026-04-24 12:08 21.78048 62.48845 38839 ft 530 kts 120°
2026-04-24 12:08 21.74665 62.55840 38840 ft 531 kts 120°
2026-04-24 12:09 21.71270 62.62887 38840 ft 530 kts 120°
2026-04-24 12:09 21.67896 62.69921 38840 ft 530 kts 120°
2026-04-24 12:10 21.64522 62.76957 38840 ft 529 kts 120°
2026-04-24 12:11 21.59459 62.87497 38845 ft 529 kts 120°
2026-04-24 12:11 21.56081 62.94514 38844 ft 529 kts 120°
2026-04-24 12:12 21.52701 63.01529 38843 ft 529 kts 120°
2026-04-24 12:12 21.49317 63.08542 38842 ft 528 kts 120°
2026-04-24 12:13 21.45934 63.15540 38841 ft 528 kts 120°
2026-04-24 12:13 21.42545 63.22539 38844 ft 528 kts 120°
2026-04-24 12:14 21.39156 63.29532 38840 ft 528 kts 120°
2026-04-24 12:14 21.35766 63.36518 38846 ft 528 kts 120°
2026-04-24 12:15 21.32398 63.43450 38847 ft 528 kts 120°
2026-04-24 12:15 21.29001 63.50430 38846 ft 527 kts 120°
2026-04-24 12:16 21.25610 63.57393 38845 ft 527 kts 120°
2026-04-24 12:16 21.22215 63.64352 38851 ft 527 kts 120°
2026-04-24 12:17 21.18792 63.71353 38848 ft 526 kts 120°
2026-04-24 12:17 21.15423 63.78247 38849 ft 526 kts 120°
2026-04-24 12:18 21.12027 63.85185 38850 ft 526 kts 120°
2026-04-24 12:18 21.08634 63.92111 38850 ft 525 kts 120°
2026-04-24 12:19 21.05237 63.99033 38850 ft 525 kts 120°
2026-04-24 12:19 21.01836 64.05953 38849 ft 525 kts 120°
2026-04-24 12:20 20.98435 64.12863 38848 ft 525 kts 120°
2026-04-24 12:20 20.95033 64.19768 38849 ft 524 kts 120°
2026-04-24 12:21 20.91630 64.26664 38849 ft 524 kts 120°
2026-04-24 12:21 20.88222 64.33561 38850 ft 524 kts 120°
2026-04-24 12:22 20.84814 64.40449 38850 ft 524 kts 120°
2026-04-24 12:22 20.81425 64.47290 38848 ft 524 kts 120°
2026-04-24 12:23 20.77992 64.54213 38848 ft 524 kts 120°
2026-04-24 12:23 20.74596 64.61044 38849 ft 524 kts 120°
2026-04-24 12:24 20.71181 64.67908 38849 ft 523 kts 120°
2026-04-24 12:24 20.67768 64.74772 38849 ft 523 kts 120°
2026-04-24 12:25 20.64350 64.81632 38846 ft 523 kts 120°
2026-04-24 12:25 20.60930 64.88483 38844 ft 523 kts 120°
2026-04-24 12:26 20.58062 64.94226 38844 ft 523 kts 120°
2026-04-24 12:26 20.54087 65.02188 38844 ft 523 kts 120°
2026-04-24 12:27 20.51278 65.07904 38846 ft 523 kts 120°
2026-04-24 12:27 20.47919 65.14783 38848 ft 523 kts 120°
2026-04-24 12:28 20.44554 65.21655 38844 ft 523 kts 120°
2026-04-24 12:28 20.41178 65.28522 38846 ft 523 kts 120°
2026-04-24 12:29 20.37799 65.35380 38844 ft 523 kts 120°
2026-04-24 12:29 20.34417 65.42237 38847 ft 522 kts 120°
2026-04-24 12:30 20.31035 65.49085 38846 ft 522 kts 120°
2026-04-24 12:30 20.27650 65.55933 38844 ft 522 kts 120°
2026-04-24 12:31 20.24265 65.62773 38848 ft 522 kts 120°
2026-04-24 12:31 20.20877 65.69610 38845 ft 522 kts 120°
2026-04-24 12:32 20.17487 65.76441 38845 ft 522 kts 120°
2026-04-24 12:32 20.14096 65.83266 38846 ft 522 kts 120°
2026-04-24 12:33 20.10702 65.90088 38845 ft 521 kts 120°
2026-04-24 12:33 20.07306 65.96908 38845 ft 521 kts 120°
2026-04-24 12:34 20.03912 66.03714 38843 ft 521 kts 120°
2026-04-24 12:34 20.00510 66.10523 38841 ft 521 kts 120°
2026-04-24 12:35 19.97112 66.17319 38842 ft 521 kts 120°
2026-04-24 12:35 19.93712 66.24115 38843 ft 520 kts 120°
2026-04-24 12:36 19.90315 66.30897 38840 ft 520 kts 120°
2026-04-24 12:36 19.86938 66.37631 38843 ft 520 kts 120°
2026-04-24 12:37 19.83539 66.44400 38842 ft 519 kts 120°
2026-04-24 12:37 19.80139 66.51163 38845 ft 519 kts 120°
2026-04-24 12:38 19.76740 66.57917 38844 ft 518 kts 120°
2026-04-24 12:38 19.73341 66.64662 38843 ft 518 kts 120°
2026-04-24 12:39 19.66549 66.78116 38842 ft 517 kts 120°
2026-04-24 12:40 19.63156 66.84826 38841 ft 516 kts 120°
2026-04-24 12:40 19.59764 66.91528 38843 ft 515 kts 120°
2026-04-24 12:41 19.56374 66.98216 38843 ft 515 kts 120°
2026-04-24 12:41 19.52986 67.04894 38843 ft 514 kts 120°
2026-04-24 12:42 19.49601 67.11557 38842 ft 513 kts 121°
2026-04-24 12:42 19.46213 67.18214 38844 ft 513 kts 121°
2026-04-24 12:43 19.42831 67.24854 38839 ft 512 kts 121°
2026-04-24 12:43 19.39450 67.31485 38841 ft 511 kts 121°
2026-04-24 12:44 19.36070 67.38106 38839 ft 510 kts 121°
2026-04-24 12:44 19.32696 67.44713 38838 ft 510 kts 121°
2026-04-24 12:45 19.29325 67.51307 38835 ft 509 kts 121°
2026-04-24 12:45 19.25973 67.57854 38838 ft 509 kts 121°
2026-04-24 12:46 19.22600 67.64435 38842 ft 509 kts 121°
2026-04-24 12:46 19.19226 67.71010 38839 ft 508 kts 122°
2026-04-24 12:47 19.15855 67.77570 38840 ft 507 kts 122°
2026-04-24 12:47 19.12483 67.84130 38839 ft 507 kts 122°
2026-04-24 12:48 19.09112 67.90678 38841 ft 507 kts 122°
2026-04-24 12:48 19.05740 67.97221 38841 ft 506 kts 122°
2026-04-24 12:49 19.02384 68.03763 38837 ft 507 kts 122°
2026-04-24 12:49 18.99082 68.10337 38837 ft 506 kts 122°
2026-04-24 12:50 18.95790 68.16906 38840 ft 506 kts 122°
2026-04-24 12:50 18.92482 68.23476 38839 ft 506 kts 122°
2026-04-24 12:51 18.89169 68.30036 38840 ft 506 kts 122°
2026-04-24 12:51 18.85856 68.36587 38840 ft 506 kts 122°
2026-04-24 12:52 18.82538 68.43140 38839 ft 505 kts 122°
2026-04-24 12:52 18.79225 68.49678 38836 ft 505 kts 123°
2026-04-24 12:53 18.75909 68.56214 38838 ft 505 kts 123°
2026-04-24 12:53 18.72596 68.62738 38838 ft 504 kts 123°
2026-04-24 12:54 18.69304 68.69214 38836 ft 504 kts 123°
2026-04-24 12:54 18.65991 68.75726 38832 ft 504 kts 123°
2026-04-24 12:55 18.62676 68.82230 38834 ft 504 kts 123°
2026-04-24 12:55 18.59359 68.88732 38834 ft 503 kts 123°
2026-04-24 12:56 18.56041 68.95232 38832 ft 503 kts 124°
2026-04-24 12:56 18.52724 69.01722 38832 ft 503 kts 124°
2026-04-24 12:57 18.49404 69.08209 38830 ft 503 kts 124°
2026-04-24 12:57 18.46080 69.14697 38828 ft 503 kts 124°
2026-04-24 12:58 18.42753 69.21186 38829 ft 503 kts 124°
2026-04-24 12:58 18.39426 69.27669 38824 ft 503 kts 124°
2026-04-24 12:59 18.36166 69.34190 38826 ft 505 kts 122°